AAL1531 KPHL-KPVD

Flight info

Callsign AAL1531
Flight time 0h 44m
Altitude 29000
Route DITCH T416 JIMEE WAVEY SHLEP HTO JORDN2
Aircraft A319/M-SDE3FGHIRWY/LB1

Departure

Time 2026-05-04 20:22
Airport Philadelphia International Airport (KPHL)

Arrival

Time 2026-05-04 21:06
Airport Rhode Island T. F. Green International Airport (KPVD)
Time Latitude Longitude Altitude Speed Heading
2026-05-04 19:55 39.87471 -75.24644 29 ft 0 kts 276°
2026-05-04 20:12 39.87469 -75.24620 31 ft 2 kts 276°
2026-05-04 20:13 39.87464 -75.24593 28 ft 4 kts 302°
2026-05-04 20:13 39.87452 -75.24569 28 ft 4 kts 278°
2026-05-04 20:13 39.87459 -75.24551 29 ft 4 kts 197°
2026-05-04 20:13 39.87475 -75.24545 31 ft 0 kts 196°
2026-05-04 20:15 39.87454 -75.24553 30 ft 6 kts 196°
2026-05-04 20:16 39.87417 -75.24567 27 ft 7 kts 196°
2026-05-04 20:16 39.87358 -75.24568 26 ft 10 kts 165°
2026-05-04 20:16 39.87281 -75.24548 27 ft 12 kts 186°
2026-05-04 20:16 39.87238 -75.24643 25 ft 15 kts 257°
2026-05-04 20:17 39.87209 -75.24790 26 ft 19 kts 256°
2026-05-04 20:17 39.87151 -75.24848 26 ft 12 kts 164°
2026-05-04 20:17 39.87064 -75.24815 28 ft 14 kts 159°
2026-05-04 20:17 39.86968 -75.24758 26 ft 16 kts 168°
2026-05-04 20:18 39.86932 -75.24682 28 ft 12 kts 72°
2026-05-04 20:18 39.86956 -75.24568 25 ft 14 kts 75°
2026-05-04 20:18 39.86981 -75.24439 25 ft 15 kts 76°
2026-05-04 20:18 39.87009 -75.24299 25 ft 17 kts 76°
2026-05-04 20:19 39.87038 -75.24149 25 ft 17 kts 76°
2026-05-04 20:19 39.87037 -75.24009 25 ft 16 kts 79°
2026-05-04 20:19 39.87067 -75.23866 25 ft 17 kts 75°
2026-05-04 20:19 39.87097 -75.23715 25 ft 18 kts 75°
2026-05-04 20:20 39.87128 -75.23556 25 ft 18 kts 75°
2026-05-04 20:20 39.87101 -75.23460 25 ft 13 kts 165°
2026-05-04 20:20 39.87008 -75.23428 28 ft 15 kts 166°
2026-05-04 20:20 39.86907 -75.23415 25 ft 15 kts 213°
2026-05-04 20:21 39.86853 -75.23646 27 ft 50 kts 255°
2026-05-04 20:21 39.86794 -75.23948 27 ft 78 kts 256°
2026-05-04 20:21 39.86445 -75.25692 252 ft 150 kts 255°
2026-05-04 20:22 39.86158 -75.27000 1079 ft 152 kts 247°
2026-05-04 20:22 39.85478 -75.28119 1544 ft 169 kts 221°
2026-05-04 20:22 39.84504 -75.29146 1896 ft 192 kts 219°
2026-05-04 20:22 39.83374 -75.30287 2319 ft 218 kts 218°
2026-05-04 20:23 39.82110 -75.31555 2935 ft 238 kts 218°
2026-05-04 20:23 39.80766 -75.32886 3861 ft 246 kts 218°
2026-05-04 20:23 39.79363 -75.34199 4857 ft 252 kts 211°
2026-05-04 20:23 39.77653 -75.34839 5757 ft 265 kts 185°
2026-05-04 20:24 39.75811 -75.34316 6622 ft 283 kts 155°
2026-05-04 20:24 39.74349 -75.32544 7456 ft 298 kts 122°
2026-05-04 20:24 39.73784 -75.29947 8329 ft 305 kts 90°
2026-05-04 20:24 39.73942 -75.27185 9239 ft 308 kts 82°
2026-05-04 20:25 39.74215 -75.24405 10105 ft 313 kts 80°
2026-05-04 20:25 39.74538 -75.21498 10457 ft 337 kts 80°
2026-05-04 20:25 39.74889 -75.18387 10774 ft 358 kts 80°
2026-05-04 20:25 39.75241 -75.15145 11386 ft 366 kts 81°
2026-05-04 20:26 39.75577 -75.11883 12104 ft 372 kts 81°
2026-05-04 20:26 39.75911 -75.08484 12837 ft 377 kts 82°
2026-05-04 20:26 39.76231 -75.05127 13541 ft 382 kts 82°
2026-05-04 20:26 39.76557 -75.01679 14179 ft 387 kts 82°
2026-05-04 20:27 39.76887 -74.98186 14834 ft 391 kts 82°
2026-05-04 20:27 39.77220 -74.94664 15502 ft 394 kts 81°
2026-05-04 20:27 39.77557 -74.91117 16172 ft 397 kts 81°
2026-05-04 20:27 39.77896 -74.87541 16821 ft 400 kts 81°
2026-05-04 20:28 39.78238 -74.83935 17484 ft 404 kts 81°
2026-05-04 20:28 39.78582 -74.80295 18141 ft 407 kts 81°
2026-05-04 20:28 39.78925 -74.76625 18720 ft 411 kts 81°
2026-05-04 20:28 39.79271 -74.72927 19304 ft 414 kts 81°
2026-05-04 20:29 39.79613 -74.69217 19879 ft 417 kts 81°
2026-05-04 20:29 39.79932 -74.65502 20452 ft 420 kts 81°
2026-05-04 20:29 39.80241 -74.61704 21024 ft 424 kts 81°
2026-05-04 20:29 39.80547 -74.57877 21593 ft 427 kts 81°
2026-05-04 20:30 39.80853 -74.54029 22145 ft 430 kts 81°
2026-05-04 20:30 39.81162 -74.50149 22680 ft 433 kts 81°
2026-05-04 20:30 39.81371 -74.47564 23035 ft 435 kts 81°
2026-05-04 20:30 39.81680 -74.43633 23548 ft 439 kts 83°
2026-05-04 20:31 39.81739 -74.39643 23978 ft 443 kts 87°
2026-05-04 20:31 39.81738 -74.35628 24433 ft 445 kts 87°
2026-05-04 20:31 39.81733 -74.31590 24887 ft 447 kts 87°
2026-05-04 20:31 39.81725 -74.27535 25332 ft 449 kts 87°
2026-05-04 20:32 39.81715 -74.23463 25767 ft 451 kts 86°
2026-05-04 20:32 39.81970 -74.19401 26205 ft 450 kts 76°
2026-05-04 20:32 39.82728 -74.15467 26652 ft 447 kts 66°
2026-05-04 20:32 39.83948 -74.11780 27084 ft 443 kts 57°
2026-05-04 20:33 39.85591 -74.08400 27512 ft 440 kts 49°
2026-05-04 20:33 39.87398 -74.05172 27964 ft 443 kts 49°
2026-05-04 20:33 39.89208 -74.01914 28367 ft 445 kts 49°
2026-05-04 20:33 39.91019 -73.98636 28785 ft 448 kts 49°
2026-05-04 20:34 39.92839 -73.95337 28944 ft 446 kts 49°
2026-05-04 20:34 39.94626 -73.92088 28968 ft 437 kts 49°
2026-05-04 20:34 39.98124 -73.85729 28961 ft 433 kts 49°
2026-05-04 20:35 40.01632 -73.79369 28960 ft 433 kts 49°
2026-05-04 20:35 40.04996 -73.73257 28961 ft 433 kts 49°
2026-05-04 20:36 40.08470 -73.66927 28960 ft 433 kts 49°
2026-05-04 20:36 40.11970 -73.60536 28973 ft 433 kts 49°
2026-05-04 20:37 40.15466 -73.54136 28961 ft 433 kts 49°
2026-05-04 20:37 40.18957 -73.47719 28964 ft 433 kts 49°
2026-05-04 20:38 40.22444 -73.41301 28964 ft 433 kts 49°
2026-05-04 20:38 40.25971 -73.34923 28962 ft 432 kts 47°
2026-05-04 20:39 40.29607 -73.28674 28971 ft 431 kts 46°
2026-05-04 20:39 40.33247 -73.22435 28983 ft 431 kts 47°
2026-05-04 20:40 40.36854 -73.16166 28968 ft 431 kts 47°
2026-05-04 20:40 40.40431 -73.09875 28965 ft 430 kts 47°
2026-05-04 20:41 40.44012 -73.03572 28963 ft 430 kts 47°
2026-05-04 20:41 40.47595 -72.97280 28961 ft 430 kts 47°
2026-05-04 20:42 40.51183 -72.90971 28990 ft 430 kts 47°
2026-05-04 20:42 40.54736 -72.84704 28977 ft 430 kts 47°
2026-05-04 20:43 40.58309 -72.78376 28978 ft 430 kts 47°
2026-05-04 20:43 40.61878 -72.72052 28975 ft 430 kts 47°
2026-05-04 20:44 40.65442 -72.65725 28982 ft 430 kts 47°
2026-05-04 20:44 40.69132 -72.59556 28994 ft 424 kts 39°
2026-05-04 20:45 40.73443 -72.54289 28980 ft 422 kts 37°
2026-05-04 20:45 40.77760 -72.49025 28971 ft 423 kts 37°
2026-05-04 20:46 40.82067 -72.43744 28963 ft 423 kts 37°
2026-05-04 20:46 40.86381 -72.38453 28960 ft 423 kts 37°
2026-05-04 20:47 40.88544 -72.35801 28769 ft 424 kts 37°
2026-05-04 20:47 40.90639 -72.33045 28447 ft 427 kts 43°
2026-05-04 20:47 40.92382 -72.29908 27862 ft 432 kts 53°
2026-05-04 20:47 40.93747 -72.26291 27284 ft 434 kts 61°
2026-05-04 20:48 40.94950 -72.22666 26683 ft 429 kts 61°
2026-05-04 20:48 40.96157 -72.19069 25912 ft 426 kts 61°
2026-05-04 20:48 40.97345 -72.15549 25180 ft 423 kts 61°
2026-05-04 20:48 40.98539 -72.12018 24462 ft 419 kts 61°
2026-05-04 20:49 40.99726 -72.08518 23756 ft 415 kts 61°
2026-05-04 20:49 41.00901 -72.05057 22884 ft 412 kts 61°
2026-05-04 20:49 41.02075 -72.01595 21936 ft 412 kts 62°
2026-05-04 20:49 41.03243 -71.98134 21017 ft 411 kts 62°
2026-05-04 20:50 41.04402 -71.94684 20128 ft 409 kts 62°
2026-05-04 20:50 41.05717 -71.91376 19258 ft 403 kts 53°
2026-05-04 20:50 41.07352 -71.88471 18457 ft 396 kts 45°
2026-05-04 20:50 41.09100 -71.85700 17749 ft 388 kts 46°
2026-05-04 20:51 41.10809 -71.82980 17064 ft 381 kts 46°
2026-05-04 20:51 41.12491 -71.80299 16433 ft 375 kts 46°
2026-05-04 20:51 41.14149 -71.77658 15890 ft 369 kts 46°
2026-05-04 20:51 41.15964 -71.75366 15186 ft 354 kts 30°
2026-05-04 20:52 41.18027 -71.73631 14383 ft 349 kts 27°
2026-05-04 20:52 41.20104 -71.71974 13579 ft 347 kts 26°
2026-05-04 20:52 41.22168 -71.70340 12738 ft 343 kts 26°
2026-05-04 20:52 41.24207 -71.68723 11946 ft 339 kts 26°
2026-05-04 20:53 41.26216 -71.67125 11192 ft 335 kts 26°
2026-05-04 20:53 41.28167 -71.65562 10801 ft 320 kts 26°
2026-05-04 20:53 41.30025 -71.64058 10432 ft 306 kts 26°
2026-05-04 20:53 41.31809 -71.62602 10049 ft 297 kts 26°
2026-05-04 20:54 41.33554 -71.61167 9517 ft 293 kts 26°
2026-05-04 20:54 41.35280 -71.59750 8923 ft 290 kts 26°
2026-05-04 20:54 41.36998 -71.58348 8321 ft 289 kts 26°
2026-05-04 20:54 41.38709 -71.56958 7741 ft 287 kts 26°
2026-05-04 20:55 41.40413 -71.55577 7218 ft 287 kts 26°
2026-05-04 20:55 41.42121 -71.54191 6763 ft 289 kts 26°
2026-05-04 20:55 41.43837 -71.52801 6422 ft 288 kts 26°
2026-05-04 20:55 41.45547 -71.51417 6082 ft 287 kts 26°
2026-05-04 20:56 41.47252 -71.50039 5834 ft 287 kts 26°
2026-05-04 20:56 41.48962 -71.48668 5590 ft 287 kts 26°
2026-05-04 20:56 41.50668 -71.47298 5390 ft 286 kts 26°
2026-05-04 20:56 41.52374 -71.45938 5181 ft 285 kts 27°
2026-05-04 20:57 41.54080 -71.44589 5035 ft 286 kts 26°
2026-05-04 20:57 41.55779 -71.43247 4998 ft 279 kts 26°
2026-05-04 20:57 41.57401 -71.41953 5006 ft 264 kts 26°
2026-05-04 20:57 41.58942 -71.40715 5005 ft 255 kts 26°
2026-05-04 20:58 41.60453 -71.39501 4715 ft 253 kts 26°
2026-05-04 20:58 41.61960 -71.38286 4401 ft 252 kts 26°
2026-05-04 20:58 41.63466 -71.37076 4040 ft 254 kts 26°
2026-05-04 20:58 41.64969 -71.35867 3825 ft 248 kts 26°
2026-05-04 20:59 41.66416 -71.34698 3666 ft 239 kts 26°
2026-05-04 20:59 41.67811 -71.33571 3495 ft 230 kts 26°
2026-05-04 20:59 41.69154 -71.32476 3345 ft 221 kts 27°
2026-05-04 20:59 41.70445 -71.31423 3086 ft 214 kts 26°
2026-05-04 21:00 41.71702 -71.30401 2824 ft 209 kts 27°
2026-05-04 21:00 41.72923 -71.29427 2568 ft 204 kts 25°
2026-05-04 21:00 41.74131 -71.28468 2317 ft 201 kts 26°
2026-05-04 21:00 41.75323 -71.27522 2123 ft 198 kts 27°
2026-05-04 21:01 41.76575 -71.26853 2032 ft 189 kts 356°
2026-05-04 21:01 41.77761 -71.27248 1946 ft 167 kts 316°
2026-05-04 21:01 41.78629 -71.28182 1916 ft 155 kts 300°
2026-05-04 21:01 41.79312 -71.29272 1892 ft 152 kts 296°
2026-05-04 21:02 41.79951 -71.30356 1876 ft 140 kts 295°
2026-05-04 21:02 41.80539 -71.31352 1780 ft 131 kts 293°
2026-05-04 21:02 41.80862 -71.32401 1771 ft 118 kts 269°
2026-05-04 21:02 41.80822 -71.33486 1787 ft 119 kts 250°
2026-05-04 21:03 41.80468 -71.34508 1779 ft 124 kts 237°
2026-05-04 21:03 41.79982 -71.35484 1688 ft 126 kts 233°
2026-05-04 21:03 41.79488 -71.36445 1613 ft 124 kts 230°
2026-05-04 21:03 41.78841 -71.37231 1397 ft 128 kts 215°
2026-05-04 21:04 41.78080 -71.37840 1166 ft 127 kts 214°
2026-05-04 21:04 41.77341 -71.38474 916 ft 128 kts 215°
2026-05-04 21:04 41.76600 -71.39113 822 ft 126 kts 212°
2026-05-04 21:04 41.75858 -71.39738 684 ft 125 kts 213°
2026-05-04 21:05 41.75102 -71.40370 549 ft 135 kts 215°
2026-05-04 21:05 41.74324 -71.41015 392 ft 126 kts 213°
2026-05-04 21:05 41.73582 -71.41644 216 ft 126 kts 212°
2026-05-04 21:05 41.72838 -71.42274 60 ft 124 kts 213°
2026-05-04 21:06 41.72188 -71.42818 58 ft 91 kts 213°
2026-05-04 21:06 41.71798 -71.43147 55 ft 42 kts 211°
2026-05-04 21:06 41.71572 -71.43338 63 ft 41 kts 213°
2026-05-04 21:06 41.71421 -71.43466 66 ft 14 kts 221°
2026-05-04 21:07 41.71450 -71.43585 59 ft 15 kts 335°
2026-05-04 21:07 41.71541 -71.43538 61 ft 16 kts 33°
2026-05-04 21:07 41.71643 -71.43452 61 ft 19 kts 32°
2026-05-04 21:07 41.71746 -71.43365 53 ft 12 kts 32°
2026-05-04 21:08 41.71825 -71.43304 54 ft 15 kts 15°
2026-05-04 21:08 41.71897 -71.43398 52 ft 17 kts 302°
2026-05-04 21:08 41.71964 -71.43538 51 ft 19 kts 304°
2026-05-04 21:08 41.72036 -71.43685 59 ft 18 kts 303°
2026-05-04 21:09 41.72114 -71.43756 59 ft 15 kts 19°
2026-05-04 21:09 41.72212 -71.43680 56 ft 17 kts 32°
2026-05-04 21:09 41.72310 -71.43620 58 ft 14 kts 343°
2026-05-04 21:09 41.72375 -71.43631 57 ft 5 kts
2026-05-04 21:10 41.72396 -71.43628 55 ft 1 kts
2026-05-04 21:10 41.72398 -71.43628 58 ft 0 kts